Weather History for Poplar Bluff, MO

Change the Weather History Date:

Sunday, October 6, 2013

  Actual Average Record
Temperature  
Mean Temperature 60 °F -  
Max Temperature 70 °F 76 °F 92 °F (1937)
Min Temperature 51 °F 49 °F 31 °F (1932)
Degree Days  
Heating Degree Days 5    
Growing Degree Days 10 (Base 50)    
Moisture  
Dew Point 48 °F    
Average Humidity 67    
Maximum Humidity 90    
Minimum Humidity 40    
Precipitation  
Precipitation 0.01 in - - ()
Sea Level Pressure  
Sea Level Pressure 29.92 in    
Wind  
Wind Speed 8 mph (West)    
Max Wind Speed 17 mph    
Max Gust Speed 29 mph    
Visibility 10 miles    
Events Rain    
Averages and records for this station are not official NWS values.
T = Trace of Precipitation, MM = Missing Value Source: NWS Daily Summary

Daily Weather History Graph

Daily Weather History Graph

Search for Another Location

Airport:

Trip Planner

Search our weather history database for the weather conditions in past years. The results will help you decide how hot, cold, wet, or windy it might be!

Date:

Astronomy

Oct. 06, 2013 Rise Set
Actual Time 7:01 AM CDT 6:36 PM CDT
Civil Twilight 6:35 AM CDT 7:02 PM CDT
Nautical Twilight 6:05 AM CDT 7:32 PM CDT
Astronomical Twilight 5:35 AM CDT 8:02 PM CDT
Moon 8:42 AM CDT (10/6) 7:40 PM CDT (10/6)
Length of Visible Light 12h 27m
Length of Day
11h 35m
Waxing Crescent, 3% of the Moon is Illuminated
Oct 6
Waxing Crescent
Oct 11
First Quarter
Oct 18
Full
Oct 26
Last Quarter
Nov 3
New

Hourly Weather History & Observations

Time (CDT) Temp. Dew Point Humidity Pressure Visibility Wind Dir Wind Speed Gust Speed Precip Events Conditions
12:00 AM 59.0 °F 51.8 °F 77% 29.91 in 10.0 mi WNW 17.3 mph 28.8 mph 0.00 in Rain Light Rain
12:23 AM 57.2 °F 51.8 °F 82% 29.92 in 10.0 mi WNW 5.8 mph - 0.01 in   Overcast
12:53 AM 57.0 °F 51.1 °F 81% 29.90 in 10.0 mi WNW 3.5 mph - 0.01 in   Mostly Cloudy
1:53 AM 57.0 °F 52.0 °F 83% 29.92 in 10.0 mi Variable 3.5 mph - 0.00 in   Mostly Cloudy
2:53 AM 57.0 °F 52.0 °F 83% 29.92 in 10.0 mi West 3.5 mph - N/A   Partly Cloudy
3:53 AM 57.0 °F 52.0 °F 83% 29.91 in 10.0 mi West 5.8 mph - N/A   Overcast
4:53 AM 57.0 °F 52.0 °F 83% 29.91 in 10.0 mi West 3.5 mph - N/A   Partly Cloudy
5:53 AM 55.9 °F 52.0 °F 87% 29.93 in 10.0 mi SW 3.5 mph - N/A   Mostly Cloudy
6:53 AM 55.0 °F 51.1 °F 86% 29.93 in 10.0 mi SW 4.6 mph - N/A   Mostly Cloudy
7:53 AM 54.0 °F 51.1 °F 90% 29.93 in 10.0 mi SW 5.8 mph - N/A   Clear
8:53 AM 57.9 °F 51.1 °F 78% 29.93 in 10.0 mi WSW 10.4 mph - N/A   Clear
9:53 AM 61.0 °F 48.0 °F 62% 29.92 in 10.0 mi WSW 10.4 mph - N/A   Clear
10:53 AM 64.0 °F 45.0 °F 50% 29.91 in 10.0 mi West 9.2 mph - N/A   Clear
11:53 AM 64.0 °F 43.0 °F 46% 29.89 in 10.0 mi West 10.4 mph - N/A   Clear
12:53 PM 66.0 °F 44.1 °F 45% 29.89 in 10.0 mi West 11.5 mph 21.9 mph N/A   Clear
1:53 PM 68.0 °F 44.1 °F 42% 29.87 in 10.0 mi West 15.0 mph - N/A   Clear
2:53 PM 69.1 °F 44.1 °F 40% 29.86 in 10.0 mi WNW 12.7 mph 18.4 mph N/A   Clear
3:53 PM 68.0 °F 44.1 °F 42% 29.86 in 10.0 mi West 11.5 mph - N/A   Partly Cloudy
4:53 PM 66.0 °F 45.0 °F 47% 29.87 in 10.0 mi WNW 11.5 mph 16.1 mph N/A   Scattered Clouds
5:53 PM 64.9 °F 46.0 °F 50% 29.89 in 10.0 mi WNW 5.8 mph - N/A   Mostly Cloudy
6:53 PM 60.1 °F 43.0 °F 53% 29.93 in 10.0 mi NW 9.2 mph - N/A   Clear
7:53 PM 57.0 °F 44.1 °F 62% 29.94 in 10.0 mi WNW 3.5 mph - N/A   Clear
8:53 PM 55.0 °F 44.1 °F 67% 29.97 in 10.0 mi WNW 3.5 mph - N/A   Clear
9:53 PM 53.1 °F 44.1 °F 71% 29.98 in 10.0 mi Variable 3.5 mph - N/A   Clear
10:53 PM 51.1 °F 45.0 °F 80% 29.97 in 10.0 mi WSW 3.5 mph - N/A   Clear
11:53 PM 53.1 °F 46.0 °F 77% 29.96 in 10.0 mi SSW 3.5 mph - N/A   Overcast